Location: Newark
(36.0000°N, 138.0000°E)
Time: 16:27:08
(UTC+00:00)

Tiangong 2 - Pass Details

Date: 22 March 2019
Orbit: 378 x 389 km, 42.8° (Epoch: 21 April)

Event Time Altitude Azimuth Distance (km) Brightness Sun altitude
Exits shadow 20:06:01 13° 282° (WNW) 1,254 3.1 -9.4°
Maximum altitude 20:08:38 41° 212° (SSW) 566 1.6 -8.9°
Drops below altitude 10° 20:11:37 10° 140° (SE) 1,395 4.4 -8.3°
Sets 20:13:45 0° 133° (SE) 2,247 5.6 -7.8°
